GW5822 Weather Reports


Display with metric or nautical units.
time (UTC)temp
F
wind
direction
speed
MPH
gust
MPH
rain 1hr
in
rain 24hr
in
rain mn
in
humidity
%
barometer
mb
20260503213522 67 270 4.0 8.0 0.00 0.00 0.00 26 1002.1
20260503212519 66 279 5.0 14.0 0.00 0.00 0.00 26 1002.3
20260503211535 67 280 4.0 11.0 0.00 0.00 0.00 26 1002.2
20260503210533 66 317 4.0 11.0 0.00 0.00 0.00 27 1002.4
20260503205550 65 284 4.0 11.0 0.00 0.00 0.00 27 1002.5
20260503204525 65 292 6.0 13.0 0.00 0.00 0.00 27 1002.8
20260503203522 66 293 8.0 13.0 0.00 0.00 0.00 26 1002.9
20260503202519 65 296 5.0 9.0 0.00 0.00 0.00 27 1003.0
20260503201537 65 299 6.0 13.0 0.00 0.00 0.00 26 1003.0
20260503200534 65 280 4.0 11.0 0.00 0.00 0.00 27 1003.2
20260503195530 65 298 5.0 13.0 0.00 0.00 0.00 27 1003.3
20260503194526 64 298 6.0 13.0 0.00 0.00 0.00 27 1003.5
20260503193523 64 299 5.0 14.0 0.00 0.00 0.00 26 1003.5
20260503192520 64 292 6.0 12.0 0.00 0.00 0.00 25 1003.7
20260503191557 64 284 6.0 13.0 0.00 0.00 0.00 26 1003.7
20260503190533 64 292 5.0 13.0 0.00 0.00 0.00 25 1003.7
20260503185530 64 275 6.0 15.0 0.00 0.00 0.00 24 1003.7
20260503184547 63 308 4.0 13.0 0.00 0.00 0.00 23 1003.8
20260503183523 62 283 5.0 13.0 0.00 0.00 0.00 23 1004.1
20260503182520 62 288 5.0 9.0 0.00 0.00 0.00 22 1004.0
20260503181537 63 288 5.0 10.0 0.00 0.00 0.00 23 1004.2
20260503180535 62 275 4.0 7.0 0.00 0.00 0.00 24 1004.3
20260503175530 63 303 6.0 16.0 0.00 0.00 0.00 24 1004.2
20260503174548 62 285 5.0 12.0 0.00 0.00 0.00 24 1004.3
20260503173523 64 276 6.0 16.0 0.00 0.00 0.00 23 1004.4
20260503172520 63 6 4.0 11.0 0.00 0.00 0.00 22 1004.4
20260503171558 62 305 5.0 11.0 0.00 0.00 0.00 24 1004.4
20260503170535 62 292 6.0 15.0 0.00 0.00 0.00 28 1004.5
20260503150533 58 298 5.0 10.0 0.00 0.00 0.00 49 1004.6
20260503130552 53 296 3.0 12.0 0.00 0.00 0.00 64 1004.5
20260503110533 36 214 1.0 3.0 0.00 0.00 0.00 93 1003.9
20260503081517 43 53 2.0 5.0 0.00 0.00 0.00 82 1004.4
20260503080534 44 137 1.0 4.0 0.00 0.00 0.00 81 1004.5
20260503072521 47 124 1.0 2.0 0.00 0.00 0.00 75 1004.9
20260503071519 48 32 1.0 4.0 0.00 0.00 0.00 75 1005.0
20260503070535 48 105 0.0 2.0 0.00 0.00 0.00 76 1005.0
20260503054528 50 127 1.0 2.0 0.00 0.00 0.00 74 1006.1
20260503053525 50 137 1.0 2.0 0.00 0.00 0.00 74 1006.2
20260503052523 50 131 1.0 3.0 0.00 0.00 0.00 72 1006.2
20260503051519 50 141 0.0 2.0 0.00 0.00 0.00 72 1006.3
20260503050537 51 137 0.0 2.0 0.00 0.00 0.00 71 1006.5
20260503045532 51 150 1.0 3.0 0.00 0.00 0.00 72 1006.5
20260503044529 51 170 0.0 2.0 0.00 0.00 0.00 75 1006.6
20260503043546 51 121 0.0 2.0 0.00 0.00 0.00 73 1006.8
20260503042523 51 0.0 1.0 0.00 0.00 0.00 71 1006.8
20260503041519 52 127 1.0 3.0 0.00 0.00 0.00 69 1006.7
20260503040537 52 125 1.0 3.0 0.00 0.00 0.00 69 1006.9
20260503035533 53 123 1.0 3.0 0.00 0.00 0.00 65 1007.1
20260503034530 53 117 0.0 2.0 0.00 0.00 0.00 64 1007.3
20260503033527 54 115 1.0 2.0 0.00 0.00 0.00 61 1007.3
20260503032543 55 166 0.0 3.0 0.00 0.00 0.00 59 1007.6
20260503031520 55 281 2.0 4.0 0.00 0.00 0.00 58 1007.8
20260503030558 56 280 2.0 5.0 0.00 0.00 0.00 57 1008.0
20260503025533 56 283 4.0 10.0 0.00 0.00 0.00 53 1008.0
20260503024530 56 285 2.0 5.0 0.00 0.00 0.00 52 1007.9
20260503023527 57 297 2.0 5.0 0.00 0.00 0.00 50 1007.9
20260503022523 58 301 3.0 6.0 0.00 0.00 0.00 48 1007.9
20260503021519 58 293 2.0 7.0 0.00 0.00 0.00 46 1007.8
20260503020535 58 273 2.0 5.0 0.00 0.00 0.00 45 1007.7
20260503015531 58 294 1.0 4.0 0.00 0.00 0.00 44 1007.6
20260503014547 59 263 1.0 5.0 0.00 0.00 0.00 42 1007.5
20260503013525 59 290 3.0 10.0 0.00 0.00 0.00 42 1007.5
20260503012521 59 261 2.0 8.0 0.00 0.00 0.00 41 1007.3
20260503011538 59 219 3.0 5.0 0.00 0.00 0.00 41 1007.5
20260503010535 59 258 2.0 4.0 0.00 0.00 0.00 41 1007.4
20260503005652 60 289 2.0 6.0 0.00 0.00 0.00 40 1007.2
20260503004529 60 240 0.0 2.0 0.00 0.00 0.00 40 1007.2
20260503003546 60 343 2.0 6.0 0.00 0.00 0.00 38 1007.2
20260503002522 60 132 2.0 4.0 0.00 0.00 0.00 38 1007.3
20260503001519 61 137 2.0 6.0 0.00 0.00 0.00 38 1007.3
20260503000557 61 120 1.0 4.0 0.00 0.00 0.00 37 1007.4
20260502235532 61 174 2.0 6.0 0.00 0.00 0.00 36 1007.4
20260502234529 61 177 3.0 5.0 0.00 0.00 0.00 36 1007.5
20260502233526 61 134 1.0 3.0 0.00 0.00 0.00 36 1007.7
20260502232522 61 150 1.0 4.0 0.00 0.00 0.00 36 1007.8
20260502231519 62 76 1.0 3.0 0.00 0.00 0.00 36 1007.8
20260502230537 62 122 2.0 5.0 0.00 0.00 0.00 35 1008.1
20260502225532 63 269 4.0 13.0 0.00 0.00 0.00 34 1008.1
20260502224529 63 150 2.0 6.0 0.00 0.00 0.00 33 1008.2
20260502223527 63 198 3.0 14.0 0.00 0.00 0.00 33 1008.3
20260502222522 64 206 3.0 9.0 0.00 0.00 0.00 33 1008.5
20260502221620 63 290 2.0 4.0 0.00 0.00 0.00 33 1008.6
20260502220556 63 282 3.0 11.0 0.00 0.00 0.00 33 1008.8
20260502215531 64 292 4.0 14.0 0.00 0.00 0.00 31 1008.8
20260502214528 64 244 3.0 7.0 0.00 0.00 0.00 32 1009.0